MSC Ludovica — HPAF — position and weather

sailwx.info

Track history (hours):
 
Tides and Currents Weather Stations Pressure Air Temp Water Temp Dewpoint Dewpoint Depression Visibility Wind Speed Wind Dir Waves Ship Positions

MSC Ludovica

Last reported at 2014-Oct-25 03:30 UTC. Time now 2014-Oct-25 04:25 UTC.
Position N 40°40' E 028°42'.

Length 301 m; draft 8.5 m.

Type: Ship. MMSI: 351248000.

Date/timePositionNaut miles runAvg speedWind from/ knotsBaromVisibWave heightAir tempDewpointWater temp
2014-Oct-25 03:30N 40°40' E 028°42'1 0.9
2014-Oct-25 02:33N 40°39' E 028°42'2 1.5
2014-Oct-25 01:27N 40°39' E 028°44'1 0.9
2014-Oct-25 00:33N 40°39' E 028°43'3 1.4
2014-Oct-24 22:22N 40°38' E 028°40'2 2.7
2014-Oct-24 21:33N 40°39' E 028°42'2 2.2
2014-Oct-24 20:33N 40°39' E 028°45'9 7.4
2014-Oct-24 19:23N 40°34' E 028°36'3 3.2
2014-Oct-24 18:25N 40°36' E 028°39'4 4.1
2014-Oct-24 17:29N 40°39' E 028°42'1010.4
2014-Oct-24 16:33N 40°30' E 028°41'18 1.6
2014-Oct-24 05:16N 40°26' E 029°04'1517.0
2014-Oct-24 04:22N 40°28' E 028°45'1518.7
2014-Oct-24 03:33N 40°43' E 028°41'14 0.7
2014-Oct-23 07:17N 40°57' E 028°41'2 2.8
2014-Oct-23 06:33N 40°55' E 028°39'2 0.1
2014-Oct-22 15:08N 40°56' E 028°37'2 3.9
2014-Oct-22 14:31N 40°56' E 028°40'6 5.6
2014-Oct-22 13:27N 40°50' E 028°39'17013.1
2014-Oct-22 00:28N 39°10' E 025°40'2018.0
2014-Oct-21 23:22N 38°57' E 025°59'153 3.1
2014-Oct-19 22:33N 36°60' E 023°54'2618.2
2014-Oct-19 21:08N 36°39' E 023°35'42319.5
2014-Oct-18 23:23N 36°27' E 014°48'1619.7
2014-Oct-18 22:34N 36°30' E 014°28'2020.0
2014-Oct-18 21:34N 36°34' E 014°04'2020.0
2014-Oct-18 20:32N 36°40' E 013°39'2020.1
2014-Oct-18 19:33N 36°45' E 013°15'2020.0
2014-Oct-18 18:34N 36°50' E 012°51'2020.0
2014-Oct-18 17:33N 36°53' E 012°27'2019.9
2014-Oct-18 16:33N 36°59' E 012°03'2020.0
2014-Oct-18 15:33N 37°09' E 011°42'4219.9
2014-Oct-18 13:28N 37°28' E 010°55'1819.9
2014-Oct-18 12:33N 37°33' E 010°33'2020.0
2014-Oct-18 11:34N 37°35' E 010°08'2119.9
2014-Oct-18 10:30N 37°31' E 009°42'1920.1
2014-Oct-18 09:33N 37°26' E 009°18'2120.1
2014-Oct-18 08:30N 37°22' E 008°53'1920.1
2014-Oct-18 07:33N 37°20' E 008°29'2220.8
2014-Oct-18 06:31N 37°20' E 008°02'13920.0
2014-Oct-17 23:33N 37°14' E 005°07'2020.1
2014-Oct-17 22:33N 37°13' E 004°41'2220.1
2014-Oct-17 21:28N 37°10' E 004°14'2420.1
2014-Oct-17 20:15N 37°06' E 003°44'9720.0
2014-Oct-17 15:23N 36°51' E 001°43'1720.3
2014-Oct-17 14:33N 36°49' E 001°23'2220.6
2014-Oct-17 13:30N 36°45' E 000°56'1920.2
2014-Oct-17 12:33N 36°42' E 000°32'2020.3
2014-Oct-17 11:33N 36°40' E 000°07'4220.0
2014-Oct-17 09:28N 36°33' W 000°44'20820.1
2014-Oct-16 23:05N 36°02' W 004°60'1220.7
2014-Oct-16 22:32N 35°60' W 005°14'21316.4
2014-Oct-16 09:33N 37°23' W 009°19'1918.9
2014-Oct-16 08:33N 37°39' W 009°07'1818.5
2014-Oct-16 07:33N 37°53' W 008°52'3 2.8
2014-Oct-16 06:31N 37°56' W 008°51'0 0.0
2014-Oct-16 05:31N 37°56' W 008°51'0 0.0
2014-Oct-16 04:31N 37°56' W 008°51'0 0.0
2014-Oct-16 03:31N 37°56' W 008°51'0 0.0
2014-Oct-16 02:31N 37°56' W 008°51'0 0.0
2014-Oct-16 01:31N 37°56' W 008°51'0 0.0
2014-Oct-16 00:31N 37°56' W 008°51'0 0.0
2014-Oct-15 23:31N 37°56' W 008°51'0 0.0
2014-Oct-15 22:31N 37°56' W 008°51'0 0.0
2014-Oct-15 21:31N 37°56' W 008°51'0 0.0
2014-Oct-15 20:31N 37°56' W 008°51'0 0.0
2014-Oct-15 19:28N 37°56' W 008°51'0 0.0
2014-Oct-15 18:31N 37°56' W 008°51'0 0.0
2014-Oct-15 17:31N 37°56' W 008°51'0 0.0
2014-Oct-15 16:28N 37°56' W 008°51'0 0.0
2014-Oct-15 15:31N 37°56' W 008°51'0 0.0
2014-Oct-15 14:31N 37°56' W 008°51'0 0.0
2014-Oct-15 13:31N 37°56' W 008°51'0 0.0
2014-Oct-15 12:31N 37°56' W 008°51'0 0.0
2014-Oct-15 11:31N 37°56' W 008°51'0 0.0
2014-Oct-15 10:31N 37°56' W 008°51'0 0.0
2014-Oct-15 09:31N 37°56' W 008°51'0 0.2
2014-Oct-15 08:34N 37°56' W 008°51'4 4.4
2014-Oct-15 07:33N 37°52' W 008°54'1 1.1
2014-Oct-15 06:33N 37°52' W 008°55'1 0.6
2014-Oct-15 05:34N 37°52' W 008°56'3 2.8
2014-Oct-15 04:34N 37°55' W 008°57'1 0.9
2014-Oct-15 03:34N 37°54' W 008°57'  
Track history (hours):
 
Tides and Currents Weather Stations Pressure Air Temp Water Temp Dewpoint Dewpoint Depression Visibility Wind Speed Wind Dir Waves Ship Positions

MSC Ludovica

Last reported at 2014-Oct-25 03:30 UTC. Time now 2014-Oct-25 04:25 UTC.
Position N 40°40' E 028°42'.

Length 301 m; draft 8.5 m.

Type: Ship. MMSI: 351248000.

Date/timePositionNaut miles runAvg speedWind from/ knotsBaromVisibWave heightAir tempDewpointWater temp
2014-Oct-25 03:30N 40°40' E 028°42'1 0.9
2014-Oct-25 02:33N 40°39' E 028°42'2 1.5
2014-Oct-25 01:27N 40°39' E 028°44'1 0.9
2014-Oct-25 00:33N 40°39' E 028°43'3 1.4
2014-Oct-24 22:22N 40°38' E 028°40'2 2.7
2014-Oct-24 21:33N 40°39' E 028°42'2 2.2
2014-Oct-24 20:33N 40°39' E 028°45'9 7.4
2014-Oct-24 19:23N 40°34' E 028°36'3 3.2
2014-Oct-24 18:25N 40°36' E 028°39'4 4.1
2014-Oct-24 17:29N 40°39' E 028°42'1010.4
2014-Oct-24 16:33N 40°30' E 028°41'18 1.6
2014-Oct-24 05:16N 40°26' E 029°04'1517.0
2014-Oct-24 04:22N 40°28' E 028°45'1518.7
2014-Oct-24 03:33N 40°43' E 028°41'14 0.7
2014-Oct-23 07:17N 40°57' E 028°41'2 2.8
2014-Oct-23 06:33N 40°55' E 028°39'2 0.1
2014-Oct-22 15:08N 40°56' E 028°37'2 3.9
2014-Oct-22 14:31N 40°56' E 028°40'6 5.6
2014-Oct-22 13:27N 40°50' E 028°39'17013.1
2014-Oct-22 00:28N 39°10' E 025°40'2018.0
2014-Oct-21 23:22N 38°57' E 025°59'153 3.1
2014-Oct-19 22:33N 36°60' E 023°54'2618.2
2014-Oct-19 21:08N 36°39' E 023°35'42319.5
2014-Oct-18 23:23N 36°27' E 014°48'1619.7
2014-Oct-18 22:34N 36°30' E 014°28'2020.0
2014-Oct-18 21:34N 36°34' E 014°04'2020.0
2014-Oct-18 20:32N 36°40' E 013°39'2020.1
2014-Oct-18 19:33N 36°45' E 013°15'2020.0
2014-Oct-18 18:34N 36°50' E 012°51'2020.0
2014-Oct-18 17:33N 36°53' E 012°27'2019.9
2014-Oct-18 16:33N 36°59' E 012°03'2020.0
2014-Oct-18 15:33N 37°09' E 011°42'4219.9
2014-Oct-18 13:28N 37°28' E 010°55'1819.9
2014-Oct-18 12:33N 37°33' E 010°33'2020.0
2014-Oct-18 11:34N 37°35' E 010°08'2119.9
2014-Oct-18 10:30N 37°31' E 009°42'1920.1
2014-Oct-18 09:33N 37°26' E 009°18'2120.1
2014-Oct-18 08:30N 37°22' E 008°53'1920.1
2014-Oct-18 07:33N 37°20' E 008°29'2220.8
2014-Oct-18 06:31N 37°20' E 008°02'13920.0
2014-Oct-17 23:33N 37°14' E 005°07'2020.1
2014-Oct-17 22:33N 37°13' E 004°41'2220.1
2014-Oct-17 21:28N 37°10' E 004°14'2420.1
2014-Oct-17 20:15N 37°06' E 003°44'9720.0
2014-Oct-17 15:23N 36°51' E 001°43'1720.3
2014-Oct-17 14:33N 36°49' E 001°23'2220.6
2014-Oct-17 13:30N 36°45' E 000°56'1920.2
2014-Oct-17 12:33N 36°42' E 000°32'2020.3
2014-Oct-17 11:33N 36°40' E 000°07'4220.0
2014-Oct-17 09:28N 36°33' W 000°44'20820.1
2014-Oct-16 23:05N 36°02' W 004°60'1220.7
2014-Oct-16 22:32N 35°60' W 005°14'21316.4
2014-Oct-16 09:33N 37°23' W 009°19'1918.9
2014-Oct-16 08:33N 37°39' W 009°07'1818.5
2014-Oct-16 07:33N 37°53' W 008°52'3 2.8
2014-Oct-16 06:31N 37°56' W 008°51'0 0.0
2014-Oct-16 05:31N 37°56' W 008°51'0 0.0
2014-Oct-16 04:31N 37°56' W 008°51'0 0.0
2014-Oct-16 03:31N 37°56' W 008°51'0 0.0
2014-Oct-16 02:31N 37°56' W 008°51'0 0.0
2014-Oct-16 01:31N 37°56' W 008°51'0 0.0
2014-Oct-16 00:31N 37°56' W 008°51'0 0.0
2014-Oct-15 23:31N 37°56' W 008°51'0 0.0
2014-Oct-15 22:31N 37°56' W 008°51'0 0.0
2014-Oct-15 21:31N 37°56' W 008°51'0 0.0
2014-Oct-15 20:31N 37°56' W 008°51'0 0.0
2014-Oct-15 19:28N 37°56' W 008°51'0 0.0
2014-Oct-15 18:31N 37°56' W 008°51'0 0.0
2014-Oct-15 17:31N 37°56' W 008°51'0 0.0
2014-Oct-15 16:28N 37°56' W 008°51'0 0.0
2014-Oct-15 15:31N 37°56' W 008°51'0 0.0
2014-Oct-15 14:31N 37°56' W 008°51'0 0.0
2014-Oct-15 13:31N 37°56' W 008°51'0 0.0
2014-Oct-15 12:31N 37°56' W 008°51'0 0.0
2014-Oct-15 11:31N 37°56' W 008°51'0 0.0
2014-Oct-15 10:31N 37°56' W 008°51'0 0.0
2014-Oct-15 09:31N 37°56' W 008°51'0 0.2
2014-Oct-15 08:34N 37°56' W 008°51'4 4.4
2014-Oct-15 07:33N 37°52' W 008°54'1 1.1
2014-Oct-15 06:33N 37°52' W 008°55'1 0.6
2014-Oct-15 05:34N 37°52' W 008°56'3 2.8
2014-Oct-15 04:34N 37°55' W 008°57'1 0.9
2014-Oct-15 03:34N 37°54' W 008°57'  

Dump ship's entire track history